Location: *
(32.8140°S, 174.6161°E)
Time: 20:07:46
(UTC+00:00)

SL-4 R/B - Pass Details

Date: 10 December 2019
Orbit: 428 x 667 km, 51.6° (Epoch: 22 January)

Event Time Altitude Azimuth Distance (km) Brightness Sun altitude
Exits shadow 16:13:39 - 271° (W) 2,204 4.6 -10.2°
Reaches altitude 10° 16:14:07 10° 268° (W) 2,056 4.5 -10.2°
Maximum altitude 16:17:58 24° 214° (SSW) 1,317 4.0 -9.5°
Drops below altitude 10° 16:21:41 10° 159° (SSE) 1,971 5.8 -8.9°
Sets 16:24:17 0° 144° (SE) 2,833 7.2 -8.4°
